Torna al catalogo

RSW-02

AttivoMilitarePO
NORAD 49114·PAYLOAD·🇨🇳 China

Lanciato Aug 24, 2021 da Jiuquan Satellite Launch Center

Loading…

Prossimi Passaggi (prossime 24 ore)

TLE

AggiornatoSource: Space-Track

Epoca: Sep 14, 2026, 14:29 UTC

1 49114U 21076C   26257.60373043 -.00000068  00000-0 -14768-3 0  9998
2 49114  86.4078 125.8859 0018774 166.6977 193.4666 13.42858845247883

Traccia RSW-02 in tempo reale con AllMySat

Download on the App Store